THOR ABLESTAR DEB, 121

Orbit data source: Space-Track

THOR ABLESTAR DEB, 121 is space debris in LEO originally from a launch on Thu, 29 Jun 1961 UTC launched from the Air Force Eastern Test Range (AFETR). Debris objects in space refer to the collection of defunct objects orbiting the Earth. Examples of debris include non-operational satellites, rocket bodies, and fragments generated from explosions, collisions, or faulty payload assembly.

Loading next visibility...
Identifier
121, 1961-015F
Orbit
LEO
Country
Flag of USUS
Related business
Manufacturer
Unknown
Mission
Spacecraft
Bus & Motor
Unknown
Mass
Unknown
Launch date (UTC)
1961-06-29 (65 years ago)
Launch vehicle
Unknown
Launch site
Air Force Eastern Test Range (AFETR)
Object type
Payload
Rocket body
Debris
Shape & HBR
Unknown shape, 0.4 m
Radar Cross Section
Medium (>0.1 m² and <1 m²)

Expand to show TLE details & history
Last TLE update: 12 hours ago

TLE from 12 hours ago
0 THOR ABLESTAR DEB
1   121U 61015F   26127.45557431 -.00000002  00000-0  50589-4 0  9993
2   121  66.7452 142.7706 0089281  29.6942 330.9167 14.00224489320663
Epoch: 2026-05-07T10:56Z
TLE epoch observation values (Epoch: 2026-05-07T10:56:01.620Z)
Latitude
0.00006°
Longitude
113.46241°
Altitude
838.499 km
Speed
7.463 km/s
True Right ascension
09h 31m 04s
True Declination
0° 00' 00"
Sunlit
Object was in daylight at epoch
Visualization orbit readout
Latitude
Unknown
Longitude
Unknown
Altitude
Unknown
Speed
Unknown
Apparent Right ascension
Unknown
Apparent Declination
Unknown
Sunlit
N/A
Visualization observer readout
Local Sidereal Time
06:29:37
Azimuth
Unknown
Elevation
Unknown
Doppler factor
Unknown
Orbital elements
Apogee altitude
956.313 km
Perigee altitude
826.507 km
Semi-major axis
7,269.547 km
Eccentricity
0.00893
Inclination
66.7452°
RAAN
142.7706°
Arg. of periapsis
29.6942°
True anomaly
330.41451°
Mean anomaly
330.9167°
Eccentric anomaly
330.6661°
Mean motion
3.50173 °/min
Orbital period
102.81 mins
BSTAR
0.000050589
Loading maneuver chart data...
Computing Atmospheric mass density...

Documentation

Showing up to 5 results
|